When you browse on this site, cookies collect data to enhance your experience and personalize the content and advertising you see.
Visit our Privacy Policy to learn more. By continuing to use the site, you agree to this use of cookies and data.
EN

Hourly Weather Peshawar

Today, 7 July, Tuesday

Time Temperature Precipitation Wind Pressure Humidity
00:00 +34°C° 0.2 mm 4 mps 744 mmHg 77%
01:00 +33°C° 0.2 mm 4 mps 744 mmHg 79%
02:00 +33°C° 0.1 mm 4 mps 744 mmHg 80%
03:00 +33°C° 0.1 mm 4 mps 744 mmHg 81%
04:00 +33°C° 0 mm 4 mps 743 mmHg 84%
05:00 +34°C° 0.2 mm 4 mps 744 mmHg 81%
06:00 +34°C° 0.2 mm 4 mps 744 mmHg 77%
07:00 +34°C° 0.2 mm 4 mps 745 mmHg 73%
08:00 +36°C° 0 mm 4 mps 745 mmHg 67%
09:00 +37°C° 0 mm 5 mps 744 mmHg 61%
10:00 +38°C° 0 mm 3 mps 744 mmHg 55%
11:00 +40°C° 0 mm 4 mps 744 mmHg 52%
12:00 +41°C° 0 mm 4 mps 744 mmHg 49%
13:00 +41°C° 0 mm 5 mps 743 mmHg 46%
14:00 +40°C° 1.8 mm 5 mps 743 mmHg 51%
15:00 +38°C° 1.8 mm 6 mps 743 mmHg 56%
16:00 +37°C° 0 mm 8 mps 743 mmHg 66%
17:00 +35°C° 0.1 mm 8 mps 743 mmHg 69%
18:00 +35°C° 0.1 mm 9 mps 744 mmHg 71%
19:00 +34°C° 0.1 mm 10 mps 744 mmHg 73%
20:00 +34°C° 0 mm 9 mps 744 mmHg 73%
21:00 +34°C° 0 mm 8 mps 745 mmHg 72%
22:00 +34°C° 0 mm 8 mps 745 mmHg 71%
23:00 +34°C° 0 mm 8 mps 745 mmHg 73%

Tomorrow, 8 July, Wednesday

Time Temperature Precipitation Wind Pressure Humidity
00:00 +34°C° 0 mm 8 mps 744 mmHg 75%
01:00 +33°C° 0 mm 9 mps 744 mmHg 76%
02:00 +33°C° 0 mm 9 mps 744 mmHg 77%
03:00 +33°C° 0 mm 9 mps 744 mmHg 78%
04:00 +33°C° 0 mm 9 mps 744 mmHg 79%
05:00 +33°C° 0 mm 8 mps 744 mmHg 77%
06:00 +34°C° 0 mm 7 mps 744 mmHg 75%
07:00 +34°C° 0 mm 6 mps 744 mmHg 72%
08:00 +38°C° 0 mm 6 mps 745 mmHg 62%
09:00 +40°C° 0 mm 6 mps 745 mmHg 51%
10:00 +42°C° 0 mm 6 mps 745 mmHg 40%
11:00 +44°C° 0 mm 7 mps 744 mmHg 36%
12:00 +45°C° 0 mm 8 mps 744 mmHg 33%
13:00 +47°C° 0 mm 9 mps 743 mmHg 29%
14:00 +47°C° 0 mm 9 mps 743 mmHg 31%
15:00 +45°C° 0 mm 9 mps 743 mmHg 32%
16:00 +45°C° 0 mm 9 mps 743 mmHg 34%
17:00 +44°C° 0.1 mm 8 mps 743 mmHg 38%
18:00 +41°C° 0.1 mm 7 mps 743 mmHg 42%
19:00 +40°C° 0.1 mm 6 mps 744 mmHg 46%
20:00 +38°C° 0 mm 6 mps 744 mmHg 53%
21:00 +36°C° 0 mm 6 mps 744 mmHg 60%
22:00 +35°C° 0 mm 5 mps 745 mmHg 67%
23:00 +34°C° 0 mm 4 mps 745 mmHg 67%

Day after tomorrow, 9 July, Thursday

Time Temperature Precipitation Wind Pressure Humidity
00:00 +34°C° 0 mm 3 mps 744 mmHg 67%
01:00 +32°C° 0 mm 2 mps 744 mmHg 67%
02:00 +32°C° 0 mm 2 mps 744 mmHg 68%
03:00 +33°C° 0 mm 3 mps 744 mmHg 69%
04:00 +33°C° 0 mm 3 mps 743 mmHg 71%
05:00 +33°C° 0 mm 4 mps 744 mmHg 70%
06:00 +34°C° 0 mm 5 mps 744 mmHg 70%
07:00 +34°C° 0 mm 5 mps 744 mmHg 70%
08:00 +35°C° 0 mm 6 mps 744 mmHg 64%
09:00 +38°C° 0 mm 6 mps 744 mmHg 59%
10:00 +39°C° 0 mm 6 mps 744 mmHg 54%
11:00 +40°C° 0 mm 5 mps 744 mmHg 52%
12:00 +40°C° 0 mm 5 mps 743 mmHg 49%
13:00 +41°C° 0 mm 4 mps 743 mmHg 46%
14:00 +40°C° 0 mm 5 mps 743 mmHg 48%
15:00 +40°C° 0 mm 6 mps 742 mmHg 49%
16:00 +40°C° 0 mm 6 mps 742 mmHg 51%
17:00 +39°C° 0 mm 6 mps 742 mmHg 56%
18:00 +36°C° 0 mm 6 mps 743 mmHg 61%
19:00 +35°C° 0 mm 6 mps 743 mmHg 66%
20:00 +35°C° 0 mm 6 mps 744 mmHg 70%
21:00 +34°C° 0 mm 6 mps 744 mmHg 73%
22:00 +34°C° 0 mm 6 mps 744 mmHg 77%
23:00 +34°C° 0.1 mm 6 mps 744 mmHg 78%

10 July, Friday

Time Temperature Precipitation Wind Pressure Humidity
00:00 +33°C° 0.1 mm 7 mps 744 mmHg 79%
01:00 +33°C° 0.1 mm 8 mps 744 mmHg 81%
02:00 +33°C° 0.1 mm 8 mps 743 mmHg 80%
03:00 +33°C° 0.1 mm 8 mps 743 mmHg 80%
04:00 +33°C° 0.1 mm 8 mps 743 mmHg 79%
05:00 +33°C° 0 mm 8 mps 743 mmHg 78%
06:00 +34°C° 0 mm 8 mps 743 mmHg 76%
07:00 +34°C° 0 mm 9 mps 743 mmHg 75%
08:00 +35°C° 0 mm 9 mps 744 mmHg 70%
09:00 +37°C° 0 mm 9 mps 744 mmHg 66%
10:00 +37°C° 0 mm 10 mps 744 mmHg 61%
11:00 +38°C° 0 mm 10 mps 743 mmHg 60%
12:00 +38°C° 0 mm 10 mps 743 mmHg 59%
13:00 +38°C° 0 mm 10 mps 743 mmHg 58%
14:00 +38°C° 0 mm 10 mps 742 mmHg 59%
15:00 +37°C° 0 mm 10 mps 742 mmHg 59%
16:00 +37°C° 0 mm 10 mps 742 mmHg 60%
17:00 +36°C° 0 mm 10 mps 742 mmHg 65%
18:00 +34°C° 0 mm 9 mps 742 mmHg 70%
19:00 +33°C° 0 mm 9 mps 743 mmHg 74%
20:00 +33°C° 0.1 mm 9 mps 743 mmHg 74%
21:00 +33°C° 0.1 mm 10 mps 744 mmHg 74%
22:00 +33°C° 0.1 mm 10 mps 744 mmHg 75%
23:00 +33°C° 0.1 mm 10 mps 743 mmHg 74%

11 July, Saturday

Time Temperature Precipitation Wind Pressure Humidity
00:00 +33°C° 0.1 mm 10 mps 743 mmHg 74%
01:00 +33°C° 0.1 mm 10 mps 743 mmHg 74%
02:00 +33°C° 0.1 mm 10 mps 742 mmHg 74%
03:00 +33°C° 0.1 mm 10 mps 742 mmHg 74%
04:00 +33°C° 0.1 mm 10 mps 742 mmHg 74%
05:00 +33°C° 0 mm 10 mps 742 mmHg 73%
06:00 +33°C° 0 mm 10 mps 742 mmHg 72%
07:00 +33°C° 0 mm 10 mps 742 mmHg 70%
08:00 +34°C° 0 mm 10 mps 742 mmHg 68%
09:00 +34°C° 0 mm 10 mps 742 mmHg 67%
10:00 +36°C° 0 mm 11 mps 742 mmHg 65%
11:00 +36°C° 0 mm 11 mps 742 mmHg 63%
12:00 +37°C° 0 mm 11 mps 741 mmHg 62%
13:00 +37°C° 0 mm 12 mps 741 mmHg 60%
14:00 +37°C° 0 mm 11 mps 741 mmHg 61%
15:00 +37°C° 0 mm 11 mps 741 mmHg 62%
16:00 +37°C° 0 mm 11 mps 741 mmHg 64%
17:00 +36°C° 0 mm 11 mps 741 mmHg 67%
18:00 +34°C° 0 mm 10 mps 741 mmHg 70%
19:00 +33°C° 0 mm 9 mps 741 mmHg 74%
20:00 +33°C° 0.1 mm 9 mps 742 mmHg 73%
21:00 +33°C° 0.1 mm 9 mps 742 mmHg 73%
22:00 +33°C° 0.1 mm 9 mps 743 mmHg 72%
23:00 +33°C° 0.1 mm 9 mps 742 mmHg 72%

12 July, Sunday

Time Temperature Precipitation Wind Pressure Humidity
00:00 +33°C° 0.1 mm 9 mps 742 mmHg 73%
01:00 +33°C° 0.1 mm 10 mps 742 mmHg 73%
02:00 +33°C° 0 mm 9 mps 742 mmHg 74%
03:00 +33°C° 0 mm 9 mps 742 mmHg 74%
04:00 +33°C° 0 mm 9 mps 742 mmHg 75%
05:00 +33°C° 0.1 mm 9 mps 742 mmHg 73%
06:00 +33°C° 0.1 mm 10 mps 742 mmHg 72%
07:00 +33°C° 0.1 mm 10 mps 742 mmHg 70%
08:00 +34°C° 0 mm 10 mps 742 mmHg 67%
09:00 +36°C° 0 mm 10 mps 743 mmHg 63%
10:00 +37°C° 0 mm 10 mps 743 mmHg 60%
11:00 +37°C° 0 mm 10 mps 743 mmHg 59%
12:00 +37°C° 0 mm 10 mps 743 mmHg 59%
13:00 +37°C° 0 mm 10 mps 742 mmHg 58%
14:00 +37°C° 0 mm 10 mps 742 mmHg 59%
15:00 +37°C° 0 mm 10 mps 742 mmHg 60%
16:00 +37°C° 0 mm 10 mps 742 mmHg 61%
17:00 +35°C° 0 mm 9 mps 742 mmHg 65%
18:00 +34°C° 0 mm 9 mps 743 mmHg 68%
19:00 +33°C° 0 mm 8 mps 743 mmHg 72%
20:00 +33°C° 0 mm 8 mps 744 mmHg 73%
21:00 +33°C° 0 mm 8 mps 744 mmHg 73%
22:00 +33°C° 0 mm 8 mps 745 mmHg 74%
23:00 +33°C° 0.1 mm 8 mps 744 mmHg 74%
Show more